Alliance, NE

1:53 PM MDT on July 26, 2017 (GMT -0600)
Alliance Municipal

Weather History for KAIA - March, 2014

Change the Weather History Date:

Wednesday, March 26, 2014

  Actual Average Record
Temperature  
Mean Temperature 49 °F 40 °F  
Max Temperature 73 °F 54 °F 83 °F (2012)
Min Temperature 25 °F 25 °F -3 °F (1931)
Degree Days  
Heating Degree Days 16 25  
Month to date heating degree days 796 760  
Since 1 July heating degree days 6360 6164  
Cooling Degree Days 0 0  
Month to date cooling degree days 0 0  
Year to date cooling degree days 0 0  
Moisture  
Dew Point 25 °F    
Average Humidity 50    
Maximum Humidity 85    
Minimum Humidity 14    
Precipitation  
Precipitation T in 0.05 in 0.60 in (1902)
Month to date precipitation 0.09 0.56  
Year to date precipitation 1.34 1.12  
Sea Level Pressure  
Sea Level Pressure 29.44 in    
Wind  
Wind Speed 14 mph (SSW)    
Max Wind Speed 32 mph    
Max Gust Speed 42 mph    
Visibility 10 miles    
Events      
T = Trace of Precipitation, MM = Missing Value Source: NWS Daily Summary

Daily Weather History Graph

Daily Weather History Graph

Search for Another Location

Airport or City:

Trip Planner

Search our weather history database for the weather conditions in past years. The results will help you decide how hot, cold, wet, or windy it might be!

Date:

Astronomy

Mar. 26, 2014 Rise Set
Actual Time 6:44 AM MDT 7:10 PM MDT
Civil Twilight 6:16 AM MDT 7:38 PM MDT
Nautical Twilight 5:43 AM MDT 8:11 PM MDT
Astronomical Twilight 5:09 AM MDT 8:45 PM MDT
Moon 3:58 AM MDT 2:47 PM MDT
Length of Visible Light 13h 22m
Length of Day
12h 26m
Waning Crescent, 21% of the Moon is Illuminated
Mar 26
Waning Crescent
Mar 30
New
Apr 7
First Quarter
Apr 15
Full
Apr 22
Last Quarter

Hourly Weather History & Observations

Time (MDT) Temp. Windchill Dew Point Humidity Pressure Visibility Wind Dir Wind Speed Gust Speed Precip Events Conditions
12:53 AM 34.0 °F 24.2 °F 25.0 °F 70% 29.73 in 10.0 mi SSE 15.0 mph - N/A   Clear
1:53 AM 32.0 °F 22.1 °F 24.1 °F 73% 29.69 in 10.0 mi SSE 13.8 mph - N/A   Clear
2:53 AM 28.9 °F 20.4 °F 24.1 °F 82% 29.66 in 10.0 mi SSE 9.2 mph - N/A   Clear
3:53 AM 28.0 °F 18.6 °F 23.0 °F 81% 29.62 in 10.0 mi SSE 10.4 mph - N/A   Clear
4:53 AM 27.0 °F 17.3 °F 23.0 °F 85% 29.60 in 10.0 mi SSE 10.4 mph - N/A   Clear
5:53 AM 26.1 °F 16.2 °F 21.9 °F 84% 29.59 in 10.0 mi SSE 10.4 mph - N/A   Clear
6:53 AM 26.1 °F 21.9 °F 21.9 °F 84% 29.57 in 10.0 mi SSE 3.5 mph - N/A   Clear
7:53 AM 30.0 °F 22.4 °F 25.0 °F 82% 29.58 in 10.0 mi South 8.1 mph - N/A   Clear
8:53 AM 36.0 °F 29.6 °F 26.1 °F 67% 29.53 in 10.0 mi South 8.1 mph - N/A   Clear
9:53 AM 46.0 °F 42.5 °F 28.9 °F 51% 29.50 in 10.0 mi South 6.9 mph - N/A   Clear
10:53 AM 60.1 °F - 30.0 °F 32% 29.44 in 10.0 mi SSW 11.5 mph - N/A   Clear
11:53 AM 69.1 °F - 21.9 °F 17% 29.38 in 10.0 mi WSW 12.7 mph 23.0 mph N/A   Clear
12:53 PM 69.1 °F - 23.0 °F 18% 29.35 in 10.0 mi SW 21.9 mph 31.1 mph N/A   Clear
1:53 PM 73.0 °F - 21.9 °F 15% 29.32 in 10.0 mi WSW 23.0 mph 31.1 mph N/A   Clear
2:53 PM 66.9 °F - 19.9 °F 17% 29.31 in 10.0 mi West 20.7 mph - N/A   Partly Cloudy
3:53 PM 69.1 °F - 19.9 °F 15% 29.29 in 10.0 mi West 9.2 mph 34.5 mph N/A   Scattered Clouds
4:25 PM 64.9 °F - 23.0 °F 20% 29.32 in 10.0 mi WNW 13.8 mph 27.6 mph N/A   Mostly Cloudy
4:53 PM 64.9 °F - 21.9 °F 19% 29.29 in 10.0 mi West 23.0 mph 31.1 mph N/A   Mostly Cloudy
5:53 PM 62.1 °F - 25.0 °F 24% 29.29 in 10.0 mi SW 8.1 mph - N/A   Mostly Cloudy
6:53 PM 61.0 °F - 25.0 °F 25% 29.28 in 10.0 mi West 24.2 mph - N/A   Partly Cloudy
7:53 PM 57.0 °F - 30.9 °F 37% 29.32 in 10.0 mi NW 21.9 mph 41.4 mph N/A   Overcast
8:53 PM 50.0 °F - 30.9 °F 48% 29.34 in 10.0 mi NE 13.8 mph - N/A   Overcast
9:53 PM 46.0 °F 40.2 °F 30.9 °F 56% 29.37 in 10.0 mi NNE 12.7 mph - N/A   Overcast
10:53 PM 43.0 °F 36.4 °F 30.9 °F 62% 29.35 in 10.0 mi NE 12.7 mph - 0.00 in   Overcast
11:53 PM 39.9 °F 32.1 °F 32.0 °F 73% 29.35 in 10.0 mi NNE 13.8 mph - 0.00 in   Overcast